Powrót do katalogu

STARLINK-11594

AktywnyŁącznośćVLEO
NORAD 64320·PAYLOAD·🇺🇸 United States

Wystrzelony Jun 10, 2025 z Cape Canaveral Space Force Station

Loading…

Następne Przeloty (najbliższe 24 godziny)

TLE

ŚwieżeSource: CelesTrak SupGP

Epoka: Sep 15, 2026, 02:53 UTC

1 64320C 25124D   26258.12062500  .00015943  00000+0  12387-3 0  2581
2 64320  43.0000 327.7531 0001589 257.2179  75.6110 15.70822649    13

Śledź STARLINK-11594 w czasie rzeczywistym z AllMySat

Download on the App Store